Alva, OK

8:07 PM CDT on May 27, 2017 (GMT -0500)
Alva Regional

Weather History for KAVK - February, 2014

Change the Weather History Date:

Thursday, February 13, 2014

  Actual Average Record
Temperature  
Mean Temperature 32 °F -  
Max Temperature 48 °F 51 °F 77 °F (1962)
Min Temperature 17 °F 28 °F 3 °F (1948)
Degree Days  
Heating Degree Days 32    
Moisture  
Dew Point 28 °F    
Average Humidity 84    
Maximum Humidity 100    
Minimum Humidity 61    
Precipitation  
Precipitation 0.00 in - - ()
Sea Level Pressure  
Sea Level Pressure 29.87 in    
Wind  
Wind Speed 7 mph (SW)    
Max Wind Speed 13 mph    
Max Gust Speed -    
Visibility 9 miles    
Events      
Averages and records for this station are not official NWS values.
T = Trace of Precipitation, MM = Missing Value Source: NWS Daily Summary

Daily Weather History Graph

Daily Weather History Graph

Search for Another Location

Airport or City:

Trip Planner

Search our weather history database for the weather conditions in past years. The results will help you decide how hot, cold, wet, or windy it might be!

Date:

Astronomy

Feb. 13, 2014 Rise Set
Actual Time 7:25 AM CST 6:13 PM CST
Civil Twilight 6:58 AM CST 6:39 PM CST
Nautical Twilight 6:28 AM CST 7:10 PM CST
Astronomical Twilight 5:58 AM CST 7:40 PM CST
Moon 5:22 PM CST (2/13) 6:18 AM CST (2/13)
Length of Visible Light 11h 41m
Length of Day
10h 47m
Waxing Gibbous, 99% of the Moon is Illuminated
Feb 13
Waxing Gibbous
Feb 14
Full
Feb 22
Last Quarter
Mar 1
New
Mar 8
First Quarter

Hourly Weather History & Observations

Time (CST) Temp. Windchill Dew Point Humidity Pressure Visibility Wind Dir Wind Speed Gust Speed Precip Events Conditions
12:05 AM 19.4 °F 11.5 °F 19.4 °F 100% 29.97 in 7.0 mi South 5.8 mph - N/A   Clear
12:25 AM 19.4 °F 12.8 °F 19.4 °F 100% 29.97 in 7.0 mi SSE 4.6 mph - N/A   Clear
12:45 AM 23.0 °F 14.7 °F 21.2 °F 93% 29.95 in 6.0 mi SSE 6.9 mph - N/A   Clear
1:05 AM 19.4 °F 8.6 °F 17.6 °F 93% 29.94 in 5.0 mi South 9.2 mph - N/A   Partly Cloudy
1:25 AM 19.4 °F 8.6 °F 19.4 °F 100% 29.94 in 7.0 mi SSW 9.2 mph - N/A   Partly Cloudy
1:45 AM 17.6 °F 6.4 °F 17.6 °F 100% 29.93 in 8.0 mi SSW 9.2 mph - N/A   Partly Cloudy
2:05 AM 19.4 °F 9.5 °F 17.6 °F 93% 29.93 in 8.0 mi SSW 8.1 mph - N/A   Clear
2:25 AM 19.4 °F 8.6 °F 19.4 °F 100% 29.93 in 10.0 mi SW 9.2 mph - N/A   Clear
2:50 AM 19.4 °F 8.6 °F 19.4 °F 100% 29.92 in 10.0 mi SSW 9.2 mph - N/A   Clear
3:05 AM 19.4 °F 7.9 °F 19.4 °F 100% 29.91 in 10.0 mi SW 10.4 mph - N/A   Clear
3:25 AM 19.4 °F 10.4 °F 19.4 °F 100% 29.91 in 10.0 mi SW 6.9 mph - N/A   Clear
3:45 AM 19.4 °F 12.8 °F 19.4 °F 100% 29.92 in 10.0 mi WNW 4.6 mph - N/A   Clear
4:05 AM 23.0 °F 17.0 °F 21.2 °F 93% 29.91 in 10.0 mi WSW 4.6 mph - N/A   Clear
4:25 AM 21.2 °F 13.6 °F 19.4 °F 93% 29.91 in 10.0 mi SW 5.8 mph - N/A   Clear
4:45 AM 19.4 °F 10.4 °F 19.4 °F 100% 29.90 in 10.0 mi SW 6.9 mph - N/A   Clear
5:10 AM 19.4 °F 12.8 °F 19.4 °F 100% 29.90 in 10.0 mi SW 4.6 mph - N/A   Clear
5:30 AM 21.2 °F 13.6 °F 19.4 °F 93% 29.90 in 10.0 mi SSW 5.8 mph - N/A   Clear
5:50 AM 21.2 °F 11.7 °F 21.2 °F 100% 29.89 in 7.0 mi South 8.1 mph - N/A   Clear
6:10 AM 19.4 °F 7.9 °F 19.4 °F 100% 29.89 in 5.0 mi South 10.4 mph - N/A   Clear
6:30 AM 19.4 °F 8.6 °F 19.4 °F 100% 29.90 in 8.0 mi SSW 9.2 mph - N/A   Clear
6:45 AM 21.2 °F 13.6 °F 21.2 °F 100% 29.90 in 7.0 mi SW 5.8 mph - N/A   Clear
7:05 AM 19.4 °F 11.5 °F 17.6 °F 93% 29.91 in 8.0 mi West 5.8 mph - N/A   Clear
7:25 AM 21.2 °F 11.7 °F 19.4 °F 93% 29.91 in 8.0 mi WSW 8.1 mph - N/A   Clear
7:45 AM 19.4 °F 7.9 °F 19.4 °F 100% 29.91 in 9.0 mi SW 10.4 mph - N/A   Clear
8:10 AM 19.4 °F 9.5 °F 17.6 °F 93% 29.90 in 9.0 mi WSW 8.1 mph - N/A   Clear
8:25 AM 21.2 °F 11.7 °F 21.2 °F 100% 29.91 in 9.0 mi WSW 8.1 mph - N/A   Clear
8:45 AM 23.0 °F 12.4 °F 21.2 °F 93% 29.91 in 9.0 mi SW 10.4 mph - N/A   Clear
9:05 AM 26.6 °F 17.5 °F 24.8 °F 93% 29.91 in 10.0 mi WSW 9.2 mph - N/A   Clear
9:25 AM 30.2 °F 21.9 °F 28.4 °F 93% 29.91 in 9.0 mi West 9.2 mph - N/A   Clear
9:45 AM 33.8 °F 25.8 °F 30.2 °F 87% 29.92 in 10.0 mi West 10.4 mph - N/A   Clear
10:05 AM 35.6 °F 29.2 °F 30.2 °F 81% 29.92 in 10.0 mi West 8.1 mph - N/A   Clear
10:25 AM 35.6 °F 29.9 °F 30.2 °F 81% 29.91 in 10.0 mi West 6.9 mph - N/A   Clear
10:45 AM 35.6 °F 29.9 °F 30.2 °F 81% 29.91 in 10.0 mi West 6.9 mph - N/A   Clear
11:05 AM 35.6 °F 31.7 °F 32.0 °F 87% 29.92 in 10.0 mi West 4.6 mph - N/A   Clear
11:25 AM 39.2 °F 32.0 °F 32.0 °F 75% 29.92 in 10.0 mi NW 11.5 mph - N/A   Clear
11:45 AM 41.0 °F 33.9 °F 30.2 °F 65% 29.92 in 10.0 mi NW 12.7 mph - N/A   Clear
12:05 PM 41.0 °F 34.3 °F 30.2 °F 65% 29.92 in 10.0 mi NW 11.5 mph - N/A   Clear
12:25 PM 42.8 °F 37.0 °F 30.2 °F 61% 29.91 in 10.0 mi NW 10.4 mph - N/A   Clear
12:45 PM 44.6 °F 40.7 °F 32.0 °F 61% 29.90 in 10.0 mi NNW 6.9 mph - N/A   Clear
1:25 PM 41.0 °F 39.0 °F 32.0 °F 70% 29.88 in 10.0 mi WNW 3.5 mph - N/A   Clear
1:50 PM 44.6 °F 41.4 °F 33.8 °F 66% 29.86 in 10.0 mi WSW 5.8 mph - N/A   Clear
2:05 PM 42.8 °F 40.1 °F 32.0 °F 66% 29.85 in 10.0 mi WSW 4.6 mph - N/A   Clear
2:25 PM 44.6 °F 41.4 °F 35.6 °F 71% 29.86 in 10.0 mi West 5.8 mph - N/A   Clear
2:45 PM 44.6 °F 40.7 °F 33.8 °F 66% 29.86 in 10.0 mi WSW 6.9 mph - N/A   Clear
3:05 PM 46.4 °F 44.3 °F 35.6 °F 66% 29.86 in 10.0 mi West 4.6 mph - N/A   Clear
3:25 PM 46.4 °F 45.2 °F 35.6 °F 66% 29.86 in 10.0 mi West 3.5 mph - N/A   Clear
3:45 PM 46.4 °F 44.3 °F 37.4 °F 71% 29.85 in 10.0 mi WSW 4.6 mph - N/A   Clear
4:05 PM 46.4 °F 43.5 °F 37.4 °F 71% 29.86 in 10.0 mi SW 5.8 mph - N/A   Clear
4:25 PM 44.6 °F 42.2 °F 35.6 °F 71% 29.86 in 10.0 mi WSW 4.6 mph - N/A   Clear
4:45 PM 46.4 °F 44.3 °F 37.4 °F 71% 29.85 in 10.0 mi SW 4.6 mph - N/A   Clear
5:05 PM 46.4 °F 45.2 °F 37.4 °F 71% 29.84 in 10.0 mi NW 3.5 mph - N/A   Clear
5:25 PM 48.2 °F - 35.6 °F 62% 29.84 in 10.0 mi Calm Calm - N/A   Clear
5:45 PM 46.4 °F - 35.6 °F 66% 29.83 in 10.0 mi Calm Calm - N/A   Clear
6:05 PM 46.4 °F - 35.6 °F 66% 29.82 in 10.0 mi Calm Calm - N/A   Clear
6:25 PM 44.6 °F 43.1 °F 33.8 °F 66% 29.83 in 10.0 mi WNW 3.5 mph - N/A   Clear
6:45 PM 44.6 °F 43.1 °F 33.8 °F 66% 29.82 in 10.0 mi West 3.5 mph - N/A   Clear
7:10 PM 41.0 °F 38.0 °F 33.8 °F 76% 29.83 in 10.0 mi West 4.6 mph - N/A   Clear
7:25 PM 41.0 °F 37.1 °F 33.8 °F 76% 29.83 in 10.0 mi West 5.8 mph - N/A   Clear
7:45 PM 37.4 °F 32.1 °F 32.0 °F 81% 29.82 in 10.0 mi West 6.9 mph - N/A   Clear
8:05 PM 35.6 °F 29.2 °F 32.0 °F 87% 29.82 in 10.0 mi WSW 8.1 mph - N/A   Clear
8:25 PM 35.6 °F 32.8 °F 32.0 °F 87% 29.82 in 10.0 mi SW 3.5 mph - N/A   Clear
8:45 PM 35.6 °F 31.7 °F 32.0 °F 87% 29.81 in 10.0 mi SSW 4.6 mph - N/A   Clear
9:05 PM 35.6 °F 29.2 °F 32.0 °F 87% 29.80 in 10.0 mi SSW 8.1 mph - N/A   Partly Cloudy
9:25 PM 35.6 °F 29.2 °F 32.0 °F 87% 29.80 in 10.0 mi SSW 8.1 mph - N/A   Partly Cloudy
9:45 PM 35.6 °F 28.0 °F 32.0 °F 87% 29.79 in 10.0 mi SSW 10.4 mph - N/A   Clear
10:05 PM 35.6 °F 29.2 °F 32.0 °F 87% 29.77 in 10.0 mi South 8.1 mph - N/A   Clear
10:25 PM 37.4 °F 30.8 °F 32.0 °F 81% 29.76 in 10.0 mi South 9.2 mph - N/A   Clear
10:45 PM 35.6 °F 29.2 °F 32.0 °F 87% 29.75 in 10.0 mi South 8.1 mph - N/A   Clear
11:05 PM 35.6 °F 29.2 °F 32.0 °F 87% 29.75 in 10.0 mi South 8.1 mph - N/A   Clear
11:25 PM 37.4 °F 31.4 °F 32.0 °F 81% 29.74 in 10.0 mi South 8.1 mph - N/A   Clear
11:45 PM 37.4 °F 31.4 °F 32.0 °F 81% 29.73 in 10.0 mi South 8.1 mph - N/A   Clear